Weather History for Pecos, TX

Change the Weather History Date:

Wednesday, October 26, 2011

  Actual Average Record
Temperature  
Mean Temperature 76 °F -  
Max Temperature 91 °F 77 °F 95 °F (1950)
Min Temperature 61 °F 44 °F 32 °F (1975)
Cooling Degree Days 11    
Growing Degree Days 26 (Base 50)    
Moisture  
Dew Point 40 °F    
Average Humidity 31    
Maximum Humidity 51    
Minimum Humidity 12    
Precipitation  
Precipitation 0.00 in - - ()
Sea Level Pressure  
Sea Level Pressure 29.88 in    
Wind  
Wind Speed 3 mph (West)    
Max Wind Speed 22 mph    
Max Gust Speed 31 mph    
Visibility 10 miles    
Events      
Averages and records for this station are not official NWS values.
T = Trace of Precipitation, MM = Missing Value Source: NWS Daily Summary

Daily Weather History Graph

Daily Weather History Graph

Search for Another Location

Airport:

Trip Planner

Search our weather history database for the weather conditions in past years. The results will help you decide how hot, cold, wet, or windy it might be!

Date:

Astronomy

Oct. 26, 2011 Rise Set
Actual Time 8:04 AM CDT 7:10 PM CDT
Civil Twilight 7:40 AM CDT 7:35 PM CDT
Nautical Twilight 7:11 AM CDT 8:03 PM CDT
Astronomical Twilight 6:43 AM CDT 8:32 PM CDT
Moon 7:52 AM CDT (10/26) 6:59 PM CDT (10/26)
Length of Visible Light 11h 55m
Length of Day
11h 05m
Waning Crescent, 0% of the Moon is Illuminated
Oct 26
Waning Crescent
Oct 26
New
Nov 2
First Quarter
Nov 10
Full
Nov 18
Last Quarter

Hourly Weather History & Observations

Time (CDT) Temp. Dew Point Humidity Pressure Visibility Wind Dir Wind Speed Gust Speed Precip Events Conditions
12:15 AM 71.4 °F 40.3 °F 32% 29.94 in 10.0 mi Calm Calm - N/A   Scattered Clouds
12:35 AM 70.9 °F 39.7 °F 32% 29.93 in 10.0 mi Calm Calm - N/A   Scattered Clouds
12:55 AM 72.9 °F 41.0 °F 32% 29.93 in 10.0 mi Calm Calm - N/A   Mostly Cloudy
1:15 AM 72.0 °F 41.0 °F 33% 29.93 in 10.0 mi Calm Calm - N/A   Overcast
1:35 AM 70.5 °F 42.3 °F 36% 29.92 in 10.0 mi SSE 3.5 mph - N/A   Mostly Cloudy
1:55 AM 70.0 °F 41.4 °F 35% 29.92 in 10.0 mi Calm Calm - N/A   Overcast
2:15 AM 69.8 °F 42.6 °F 37% 29.92 in 10.0 mi Calm Calm - N/A   Mostly Cloudy
2:35 AM 69.6 °F 44.1 °F 40% 29.92 in 10.0 mi Calm Calm - N/A   Scattered Clouds
2:55 AM 70.0 °F 42.3 °F 37% 29.92 in 10.0 mi Calm Calm - N/A   Mostly Cloudy
3:15 AM 69.6 °F 42.3 °F 37% 29.92 in 10.0 mi Calm Calm - N/A   Scattered Clouds
3:35 AM 68.9 °F 41.7 °F 37% 29.92 in 10.0 mi Calm Calm - N/A   Scattered Clouds
3:55 AM 67.6 °F 40.3 °F 37% 29.92 in 10.0 mi Calm Calm - N/A   Scattered Clouds
4:15 AM 67.5 °F 39.6 °F 36% 29.91 in 10.0 mi Calm Calm - N/A   Scattered Clouds
4:35 AM 65.8 °F 39.9 °F 39% 29.91 in 10.0 mi NNE 4.6 mph - N/A   Scattered Clouds
4:55 AM 66.2 °F 40.6 °F 39% 29.92 in 10.0 mi Calm Calm - N/A   Scattered Clouds
5:15 AM 65.5 °F 40.6 °F 40% 29.92 in 10.0 mi Calm Calm - N/A   Clear
5:35 AM 63.9 °F 41.7 °F 44% 29.92 in 10.0 mi Calm Calm - N/A   Clear
5:55 AM 63.5 °F 42.1 °F 46% 29.92 in 10.0 mi Calm Calm - N/A   Clear
6:15 AM 63.1 °F 41.5 °F 45% 29.92 in 10.0 mi Calm Calm - N/A   Clear
6:35 AM 63.0 °F 41.5 °F 45% 29.93 in 10.0 mi Calm Calm - N/A   Clear
6:55 AM 62.8 °F 41.2 °F 45% 29.93 in 10.0 mi Calm Calm - N/A   Scattered Clouds
7:15 AM 61.9 °F 42.1 °F 48% 29.93 in 10.0 mi WNW 3.5 mph - N/A   Mostly Cloudy
7:35 AM 61.0 °F 42.8 °F 51% 29.93 in 10.0 mi Calm Calm - N/A   Scattered Clouds
7:55 AM 61.5 °F 43.2 °F 51% 29.93 in 10.0 mi Calm Calm - N/A   Clear
8:15 AM 61.2 °F 42.1 °F 50% 29.94 in 10.0 mi Calm Calm - N/A   Clear
8:35 AM 61.5 °F 42.6 °F 50% 29.95 in 10.0 mi NW 3.5 mph - N/A   Clear
8:55 AM 62.2 °F 43.2 °F 50% 29.95 in 10.0 mi Calm Calm - N/A   Scattered Clouds
9:15 AM 63.9 °F 43.2 °F 47% 29.95 in 10.0 mi WNW 4.6 mph - N/A   Scattered Clouds
9:35 AM 66.2 °F 43.2 °F 43% 29.96 in 10.0 mi Calm Calm - N/A   Clear
9:55 AM 69.4 °F 43.0 °F 38% 29.96 in 10.0 mi WNW 4.6 mph - N/A   Clear
10:15 AM 72.7 °F 43.3 °F 35% 29.96 in 10.0 mi West 6.9 mph - N/A   Clear
10:55 AM 76.3 °F 42.6 °F 30% 29.96 in 10.0 mi WNW 5.8 mph - N/A   Clear
11:15 AM 77.7 °F 42.6 °F 29% 29.96 in 10.0 mi WNW 4.6 mph - N/A   Clear
11:55 AM 80.6 °F 41.7 °F 25% 29.95 in 10.0 mi NW 8.1 mph - N/A   Clear
12:15 PM 82.4 °F 41.2 °F 23% 29.94 in 10.0 mi WNW 3.5 mph - N/A   Clear
12:35 PM 83.7 °F 39.9 °F 21% 29.93 in 10.0 mi Calm Calm - N/A   Clear
12:55 PM 84.6 °F 39.4 °F 20% 29.92 in 10.0 mi Calm Calm - N/A   Clear
1:15 PM 86.0 °F 38.5 °F 19% 29.91 in 10.0 mi WSW 5.8 mph - N/A   Clear
1:35 PM 87.8 °F 37.8 °F 17% 29.90 in 10.0 mi SW 13.8 mph 17.3 mph N/A   Clear
1:55 PM 88.7 °F 38.1 °F 17% 29.88 in 10.0 mi West 11.5 mph 21.9 mph N/A   Clear
2:15 PM 88.7 °F 37.6 °F 16% 29.86 in 10.0 mi SW 11.5 mph 18.4 mph N/A   Clear
2:55 PM 89.8 °F 37.4 °F 16% 29.84 in 10.0 mi West 15.0 mph - N/A   Clear
3:15 PM 90.1 °F 36.9 °F 15% 29.82 in 10.0 mi WSW 8.1 mph 24.2 mph N/A   Clear
3:35 PM 90.0 °F 36.1 °F 15% 29.81 in 10.0 mi WSW 15.0 mph 19.6 mph N/A   Clear
3:55 PM 90.3 °F 35.8 °F 15% 29.80 in 10.0 mi WSW 16.1 mph 21.9 mph N/A   Clear
4:15 PM 90.7 °F 35.6 °F 14% 29.79 in 10.0 mi West 10.4 mph 23.0 mph N/A   Clear
4:35 PM 90.7 °F 35.4 °F 14% 29.78 in 10.0 mi WSW 13.8 mph 17.3 mph N/A   Clear
5:15 PM 91.0 °F 32.0 °F 12% 29.77 in 10.0 mi SW 13.8 mph 18.4 mph N/A   Clear
5:35 PM 90.7 °F 31.8 °F 12% 29.77 in 10.0 mi WSW 15.0 mph - N/A   Clear
5:55 PM 90.0 °F 31.3 °F 12% 29.77 in 10.0 mi West 13.8 mph 19.6 mph N/A   Clear
6:15 PM 88.9 °F 31.3 °F 13% 29.76 in 10.0 mi WSW 13.8 mph - N/A   Clear
6:35 PM 88.0 °F 32.0 °F 14% 29.77 in 10.0 mi WSW 9.2 mph - N/A   Clear
7:15 PM 83.1 °F 32.0 °F 16% 29.77 in 10.0 mi West 4.6 mph - N/A   Clear
7:35 PM 80.1 °F 32.7 °F 18% 29.77 in 10.0 mi North 5.8 mph - N/A   Clear
7:55 PM 79.0 °F 37.2 °F 22% 29.76 in 10.0 mi NE 9.2 mph 12.7 mph N/A   Clear
8:15 PM 79.0 °F 40.3 °F 25% 29.76 in 10.0 mi NE 9.2 mph - N/A   Clear
8:35 PM 77.5 °F 41.5 °F 28% 29.76 in 10.0 mi ENE 10.4 mph - N/A   Clear
8:55 PM 76.8 °F 42.1 °F 29% 29.76 in 10.0 mi ENE 12.7 mph 21.9 mph N/A   Clear
9:15 PM 76.3 °F 44.2 °F 32% 29.76 in 10.0 mi East 21.9 mph 31.1 mph N/A   Clear
9:35 PM 74.7 °F 45.0 °F 35% 29.76 in 10.0 mi East 20.7 mph 25.3 mph N/A   Clear
9:55 PM 73.2 °F 45.1 °F 37% 29.76 in 10.0 mi East 21.9 mph 28.8 mph N/A   Clear
10:15 PM 72.1 °F 45.3 °F 38% 29.77 in 10.0 mi East 19.6 mph 27.6 mph N/A   Scattered Clouds
10:35 PM 71.4 °F 45.1 °F 39% 29.77 in 10.0 mi East 18.4 mph 24.2 mph N/A   Scattered Clouds
10:55 PM 70.2 °F 45.1 °F 41% 29.77 in 10.0 mi East 20.7 mph - N/A   Clear
11:15 PM 69.3 °F 45.0 °F 42% 29.79 in 10.0 mi NE 15.0 mph 20.7 mph N/A   Scattered Clouds
11:35 PM 68.7 °F 44.8 °F 42% 29.83 in 10.0 mi North 16.1 mph 25.3 mph N/A   Mostly Cloudy